User: anonymous   Login
Location: Unspecified
(0.0000°N, 0.0000°E)
Time: 01:26:05
(UTC+00:00)
Language:

Syncom 3 - Orbit

View from above orbital plane
View from above orbital plane
View from above satellite
View from above satellite

Ground track
Ground track

The orbit data is extracted from the following two-line orbital elements,

1   858U 64047A   18265.49554722 -.00000145 +00000-0 +00000-0 0  9993
2   858 000.5494 031.1598 0004133 205.7204 100.8320 01.00260945160427
Epoch (UTC): 22 September 2018 11:53:35
Eccentricity: 0.0004133
inclination: 0.5494°
perigee height: 35772 km
apogee height: 35806 km
right ascension of ascending node: 31.1598°
argument of perigee: 205.7204°
revolutions per day: 1.00260945
mean anomaly at epoch: 100.8320°
orbit number at epoch: 16042

The dashed part of the orbit path shows where the satellite is in the earth's shadow,  

DLR